Regional Weather Roundup
Issued by NWS Bismarck, ND

Home | Current Version | Previous Version | Text Only | Print | Product List | Glossary On
Versions: 1 2 3 4 5 6 7 8 9 10 11 12 13 14 15 16 17 18 19 20 21 22 23 24 25 26 27 28 29 30 31 32 33 34 35 36 37 38 39 40 41 42 43 44 45 46 47 48 49 50
000
ASUS43 KBIS 300220
RWRBIS

NWR BROADCAST TEXT
NATIONAL WEATHER SERVICE BISMARCK ND
900 PM CDT FRI AUG 29 2014

NOTE: "FAIR" INDICATES FEW OR NO CLOUDS BELOW 12,000 FEET WITH NO
SIGNIFICANT WEATHER AND/OR OBSTRUCTIONS TO VISIBILITY.


CITY           SKY/WX    TMP DP  RH WIND       PRES   REMARKS
WILLISTON      MOCLDY    65  49  56 SE3       29.95F
MINOT          CLEAR     57  51  80 CALM      29.96R
MINOT AFB      CLEAR     62  52  69 E3        29.95S
BISMARCK       CLEAR     64  54  69 NE8       29.96R
DICKINSON      CLEAR     61  51  70 NE5       29.97S
GARRISON         N/A     60  53  77 NE3       29.96S
HETTINGER ARPT CLEAR     59  52  77 NE7       29.99R
JAMESTOWN      CLOUDY    61  54  77 N10       29.92R
BEACH            N/A     55  55 100 E6        29.99S
CARRINGTON     MOCLDY    59  59 100 N6        29.96R
CROSBY         FAIR      55  50  82 E7        29.96S
HARVEY         FAIR      55  55 100 N5        29.96R
HAZEN          FAIR      57  52  82 CALM      29.98R
LINTON         FAIR      59  57  94 N5        29.95R
MANDAN         FAIR      61  54  77 NE9       29.98R
OAKES            N/A     61  61 100 N20       29.89R
RUGBY          FAIR      55  52  88 N3        29.96R
STANLEY        FAIR      59  52  77 CALM      29.98R
TIOGA          FAIR      54  50  87 E8        30.00S
WATFORD CITY   FAIR      57  50  77 E6        29.95R
$$

CITY           SKY/WX    TMP DP  RH WIND       PRES   REMARKS
GRAND FORKS    CLOUDY    62  57  83 N16       29.88R
GRAND FORKS AF CLOUDY    61  61 100 N14       29.90R
DEVILS LAKE    PTCLDY    57  48  72 N8        29.94R
FARGO          CLOUDY    65  58  78 N23       29.83R
CANDO          FAIR      54  50  87 N6        29.96R
CAVALIER       FAIR      59  55  88 N8        29.93R
GRAFTON        FAIR      59  55  88 N12       29.91R
GWINNER        CLOUDY    64  61  88 N14G22    29.88R
LANGDON        FAIR      54  48  82 NE6       29.95R
ROLLA          FAIR      50  50 100 N3        29.97R
WALHALLA         N/A     57  57 100 NW8       29.94R
$$

CITY           SKY/WX    TMP DP  RH WIND       PRES   REMARKS
ABERDEEN       MOCLDY    63  60  90 N12       29.87R
MOBRIDGE       CLEAR     63  58  83 N10       29.91R
BUFFALO          N/A     63  52  67 NE7       29.93S
RAPID CITY     CLEAR     63  53  70 NE6       30.00R
GLASGOW        CLEAR     64  53  67 SE7       29.90F
SIDNEY         CLEAR     61  54  77 CALM      29.97R
WOLF POINT     CLEAR     68  49  50 SE3       29.92F
GLENDIVE       CLEAR     63  52  67 E6        29.97S
MILES CITY     CLEAR     67  51  56 E5        29.94F
BAKER          CLEAR     61  52  72 E5        29.99F
$$

CITY           SKY/WX    TMP DP  RH WIND       PRES   REMARKS
BILLINGS       PTCLDY    72  54  53 E9        29.92F
GREAT FALLS    CLEAR     76  42  29 S3        29.81F
REGINA         PTCLDY    61  46  59 E6        29.93F
ESTEVAN        PTCLDY    63  50  63 E3        29.96F
$$



USA.gov is the U.S. government's official web portal to all federal, state and local government web resources and services.